Latest Weather Observations for Essendon Airport

IDV60901

Issued at 2:45 pm EST Wednesday 3 September 2014 (issued every 10 minutes, with the page automatically refreshed every 10 minutes)

About weather observations | Map of Melbourne area stations | Latest observations for Melbourne area | Other Formats
Station Details ID: 086038 Name: ESSENDON AIRPORT Lat: -37.73 Lon: 144.91 Height: 78.4 m
Data from the previous 72 hours. | See also: Recent months at Essendon Airport
Date/Time
EST
Tmp

°C
App
Tmp
°C
Dew
Point
°C
Rel
Hum
%
Delta-T

°C
Wind Press
QNH
hPa
Press
MSL
hPa
Rain
since
9 am
mm
Dir
 
Spd
km/h
Gust
km/h
Spd
kts
Gust
kts
03/02:30pm 12.4 7.6 4.4 58 3.6 SSW 19 26 10 14 1020.5 1020.5 0.0
03/02:00pm 12.8 8.0 4.8 58 3.7 S 19 28 10 15 1020.5 1020.5 0.0
03/01:30pm 12.7 7.9 5.6 62 3.3 S 20 28 11 15 1020.6 1020.6 0.0
03/01:00pm 12.5 7.6 5.2 61 3.4 SSW 20 30 11 16 1021.1 1021.2 0.0
03/12:30pm 12.2 7.9 5.4 63 3.2 S 17 26 9 14 1021.4 1021.5 0.0
03/12:00pm 12.2 7.3 5.1 62 3.3 S 20 28 11 15 1021.7 1021.8 0.0
03/11:30am 11.6 6.5 4.3 61 3.3 S 20 26 11 14 1022.0 1022.1 0.0
03/11:00am 11.6 6.5 4.1 60 3.4 S 20 28 11 15 1022.2 1022.3 0.0
03/10:30am 11.3 6.2 4.3 62 3.2 S 20 28 11 15 1022.4 1022.5 0.0
03/10:00am 10.7 8.3 7.0 78 1.8 SSW 9 13 5 7 1022.9 1023.0 0.0
03/09:30am 10.1 8.0 6.8 80 1.6 WSW 7 9 4 5 1023.2 1023.3 0.0
03/09:00am 9.5 7.0 6.6 82 1.3 SW 9 11 5 6 1023.5 1023.6 1.2
03/08:30am 8.6 5.2 5.7 82 1.3 SW 13 15 7 8 1023.4 1023.5 1.2
03/08:00am 8.2 4.8 5.7 84 1.1 WSW 13 17 7 9 1023.3 1023.4 1.0
03/07:30am 7.2 4.8 5.3 88 0.8 W 7 9 4 5 1023.2 1023.3 1.0
03/07:00am 6.5 3.2 4.5 87 0.9 W 11 13 6 7 1022.8 1022.9 1.0
03/06:30am 5.2 1.7 3.4 88 0.8 W 11 15 6 8 1022.7 1022.8 1.0
03/06:00am 5.4 1.2 3.9 90 0.6 W 15 17 8 9 1022.6 1022.7 1.0
03/05:30am 5.3 1.1 3.6 89 0.7 WSW 15 19 8 10 1022.5 1022.6 1.0
03/05:00am 5.4 1.2 3.9 90 0.6 WSW 15 20 8 11 1022.5 1022.6 1.0
03/04:30am 5.8 1.6 4.0 88 0.8 WSW 15 19 8 10 1022.4 1022.5 1.0
03/04:00am 6.7 3.1 5.0 89 0.7 WSW 13 17 7 9 1022.5 1022.6 1.0
03/03:30am 6.7 2.4 5.3 91 0.6 W 17 20 9 11 1022.5 1022.6 1.0
03/03:00am 5.7 2.0 4.3 91 0.6 WSW 13 17 7 9 1022.5 1022.6 1.0
03/02:30am 5.8 1.7 4.4 91 0.6 WSW 15 22 8 12 1022.6 1022.7 1.0
03/02:00am 6.6 1.9 5.2 91 0.6 WSW 19 26 10 14 1022.9 1023.0 1.0
03/01:30am 6.4 1.5 5.0 91 0.6 WSW 20 28 11 15 1022.9 1023.0 1.0
03/01:00am 6.6 1.7 5.2 91 0.6 WSW 20 28 11 15 1023.0 1023.1 1.0
03/12:30am 7.1 2.9 5.7 91 0.6 WSW 17 22 9 12 1022.8 1022.9 1.0
03/12:00am 6.7 1.8 5.3 91 0.6 WSW 20 24 11 13 1022.7 1022.8 1.0
 
Date/Time
EST
Tmp

°C
App
Tmp
°C
Dew
Point
°C
Rel
Hum
%
Delta-T

°C
Wind Press
QNH
hPa
Press
MSL
hPa
Rain
since
9 am
mm
Dir
 
Spd
km/h
Gust
km/h
Spd
kts
Gust
kts
02/11:30pm 6.5 2.9 5.0 90 0.7 WSW 13 15 7 8 1022.9 1023.0 1.0
02/11:00pm 7.1 2.8 5.1 87 0.9 WSW 17 24 9 13 1023.0 1023.1 1.0
02/10:30pm 7.2 2.5 5.0 86 1.0 WSW 19 24 10 13 1023.1 1023.2 1.0
02/10:00pm 7.3 3.0 5.3 87 0.9 WSW 17 20 9 11 1023.1 1023.2 1.0
02/09:30pm 7.6 3.8 5.7 88 0.9 WSW 15 17 8 9 1023.0 1023.1 1.0
02/09:00pm 8.2 4.3 5.5 83 1.2 SW 15 19 8 10 1022.9 1023.0 1.0
02/08:30pm 8.4 4.9 5.5 82 1.3 SSW 13 17 7 9 1022.9 1023.0 1.0
02/08:00pm 8.8 4.6 5.5 80 1.5 SSW 17 26 9 14 1022.7 1022.8 1.0
02/07:30pm 9.3 4.6 6.2 81 1.4 SSW 20 30 11 16 1022.5 1022.6 1.0
02/07:00pm 9.0 4.0 6.4 84 1.2 SSW 22 30 12 16 1022.3 1022.4 1.0
02/06:30pm 9.4 5.2 7.3 87 1.0 SW 19 24 10 13 1022.0 1022.1 1.0
02/06:00pm 9.2 5.0 7.6 90 0.8 SSW 19 30 10 16 1021.7 1021.8 0.8
02/05:30pm 9.2 3.1 6.8 85 1.1 SW 28 52 15 28 1021.1 1021.2 0.6
02/05:22pm 10.0 3.0 6.2 77 1.8 SSW 32 52 17 28 1021.1 1021.2 0.6
02/05:00pm 11.7 6.4 5.1 64 3.0 S 22 32 12 17 1020.7 1020.8 0.6
02/04:30pm 11.8 5.3 4.5 61 3.3 S 28 39 15 21 1020.4 1020.4 0.6
02/04:00pm 12.3 5.7 4.3 58 3.6 S 28 39 15 21 1020.0 1020.0 0.6
02/03:30pm 12.6 5.3 4.6 58 3.7 S 32 43 17 23 1019.9 1019.9 0.6
02/03:00pm 12.2 4.4 4.7 60 3.4 S 35 48 19 26 1019.7 1019.7 0.6
02/02:30pm 13.3 5.9 5.2 58 3.8 S 33 46 18 25 1019.4 1019.4 0.6
02/02:00pm 12.8 4.9 4.3 56 3.9 S 35 48 19 26 1019.2 1019.2 0.6
02/01:51pm 13.0 5.7 4.7 57 3.8 S 32 50 17 27 1019.2 1019.2 0.6
02/01:30pm 12.7 4.0 4.2 56 3.9 S 39 50 21 27 1019.1 1019.1 0.6
02/01:20pm 13.0 4.8 4.7 57 3.8 S 37 56 20 30 1018.9 1018.9 0.6
02/01:00pm 13.8 5.4 5.4 57 3.9 SSW 39 50 21 27 1019.0 1019.0 0.6
02/12:30pm 13.0 4.0 4.7 57 3.8 SSW 41 57 22 31 1018.9 1018.9 0.6
02/12:14pm 13.0 4.1 4.9 58 3.8 S 41 59 22 32 1018.8 1018.8 0.6
02/12:00pm 13.3 4.9 5.5 59 3.7 S 39 52 21 28 1018.8 1018.8 0.6
02/11:49am 13.4 5.9 6.5 63 3.3 S 35 54 19 29 1018.8 1018.8 0.6
02/11:30am 12.8 4.8 5.9 63 3.3 S 37 50 20 27 1018.7 1018.7 0.6
02/11:18am 12.7 5.3 6.7 67 2.9 S 35 54 19 29 1018.6 1018.6 0.6
02/11:00am 12.5 6.3 7.8 73 2.3 SSW 30 41 16 22 1018.8 1018.8 0.6
02/10:49am 12.0 6.2 7.9 76 2.0 SSW 28 48 15 26 1018.7 1018.7 0.6
02/10:30am 11.2 5.4 7.9 80 1.6 SW 28 37 15 20 1018.6 1018.6 0.6
02/10:00am 10.6 5.2 8.2 85 1.2 SW 26 37 14 20 1018.4 1018.4 0.6
02/09:30am 10.0 4.2 7.9 87 1.0 SSW 28 33 15 18 1018.3 1018.3 0.4
02/09:00am 9.9 5.2 7.8 87 1.0 WSW 22 30 12 16 1017.9 1017.9 8.0
02/08:30am 9.2 4.3 7.0 86 1.0 WSW 22 28 12 15 1017.8 1017.8 8.0
02/08:00am 9.0 4.8 7.3 89 0.8 WSW 19 22 10 12 1017.1 1017.1 8.0
02/07:30am 8.0 3.0 6.6 91 0.6 WSW 22 28 12 15 1016.9 1016.9 8.0
02/07:00am 7.6 3.0 6.7 94 0.4 WSW 20 28 11 15 1016.6 1016.6 8.0
02/06:30am 7.2 3.5 6.5 95 0.3 W 15 19 8 10 1016.1 1016.1 8.0
02/06:00am 8.0 4.5 7.2 95 0.4 WSW 15 19 8 10 1015.7 1015.7 8.0
02/05:30am 7.9 4.4 7.0 94 0.4 SW 15 19 8 10 1015.3 1015.3 8.0
02/05:00am 7.7 2.4 6.6 93 0.5 WSW 24 32 13 17 1014.8 1014.9 8.0
02/04:30am 8.0 3.5 6.9 93 0.5 WSW 20 24 11 13 1014.5 1014.6 8.0
02/04:00am 7.8 3.8 6.7 93 0.5 WSW 17 20 9 11 1014.1 1014.2 8.0
02/03:30am 8.4 4.0 7.3 93 0.5 WSW 20 26 11 14 1014.0 1014.1 8.0
02/03:00am 8.3 4.5 7.4 94 0.4 W 17 22 9 12 1013.7 1013.8 8.0
02/02:30am 8.4 4.0 7.3 93 0.5 W 20 28 11 15 1013.6 1013.7 8.0
02/02:00am 8.6 4.4 7.4 92 0.6 WSW 19 24 10 13 1013.9 1014.0 8.0
02/01:30am 8.0 4.0 6.6 91 0.6 WSW 17 20 9 11 1013.5 1013.6 8.0
02/01:00am 8.3 4.0 6.8 90 0.7 W 19 24 10 13 1013.3 1013.4 8.0
02/12:30am 8.9 4.4 6.9 87 0.9 W 20 26 11 14 1013.1 1013.2 8.0
02/12:00am 8.8 4.5 7.1 89 0.8 W 19 22 10 12 1013.1 1013.2 8.0
 
Date/Time
EST
Tmp

°C
App
Tmp
°C
Dew
Point
°C
Rel
Hum
%
Delta-T

°C
Wind Press
QNH
hPa
Press
MSL
hPa
Rain
since
9 am
mm
Dir
 
Spd
km/h
Gust
km/h
Spd
kts
Gust
kts
01/11:30pm 9.1 5.3 7.4 89 0.8 W 17 20 9 11 1012.8 1012.9 8.0
01/11:00pm 9.2 5.7 7.3 88 0.9 W 15 19 8 10 1012.7 1012.8 8.0
01/10:30pm 9.4 5.6 7.5 88 0.9 W 17 20 9 11 1012.5 1012.6 8.0
01/10:00pm 9.2 6.5 7.2 87 0.9 WNW 11 15 6 8 1012.4 1012.5 8.0
01/09:30pm 9.2 6.4 7.0 86 1.0 NW 11 15 6 8 1012.4 1012.5 8.0
01/09:00pm 9.4 5.9 7.3 87 1.0 NW 15 17 8 9 1012.3 1012.4 8.0
01/08:30pm 9.2 5.7 7.3 88 0.9 NW 15 19 8 10 1012.0 1012.1 8.0
01/08:00pm 8.8 5.7 7.3 90 0.7 NW 13 17 7 9 1011.7 1011.8 8.0
01/07:30pm 8.9 5.9 7.8 93 0.5 WNW 13 19 7 10 1011.4 1011.5 8.0
01/07:00pm 8.7 6.1 7.6 93 0.5 SW 11 15 6 8 1011.2 1011.3 7.4
01/06:45pm 8.9 5.2 7.8 93 0.5 SW 17 22 9 12 1011.2 1011.3 6.8
01/06:30pm 9.2 3.1 8.1 93 0.5 W 30 44 16 24 1011.2 1011.3 6.2
01/06:27pm 10.0 5.7 9.2 95 0.4 W 22 33 12 18 1011.2 1011.3 5.8
01/06:00pm 10.2 7.5 9.1 93 0.5 S 13 20 7 11 1010.4 1010.5 4.6
01/05:30pm 11.2 8.7 9.6 90 0.8 W 13 17 7 9 1009.8 1009.8 4.4
01/05:00pm 11.3 8.7 9.4 88 1.0 WNW 13 17 7 9 1009.3 1009.3 4.2
01/04:30pm 11.4 8.7 9.1 86 1.2 W 13 15 7 8 1009.2 1009.2 4.2
01/04:00pm 11.4 9.7 9.7 89 0.9 WNW 9 13 5 7 1008.9 1008.9 4.2
01/03:30pm 11.4 9.3 9.8 90 0.8 W 11 15 6 8 1008.9 1008.9 4.0
01/03:00pm 11.3 9.6 9.7 90 0.8 WSW 9 13 5 7 1008.7 1008.7 3.8
01/02:40pm 11.3 8.0 9.6 89 0.9 SW 17 22 9 12 1008.8 1008.8 3.8
01/02:30pm 11.1 6.8 9.2 88 1.0 WSW 22 33 12 18 1008.8 1008.8 3.8
01/02:25pm 11.0 5.4 8.8 86 1.1 WSW 28 41 15 22 1008.9 1008.9 3.4
01/02:20pm 11.7 5.9 9.3 85 1.2 WSW 30 41 16 22 1009.0 1009.0 2.0
01/02:00pm 12.7 10.8 10.6 87 1.1 N 11 15 6 8 1008.1 1008.1 1.8
01/01:30pm 12.3 9.9 10.2 87 1.1 N 13 19 7 10 1008.4 1008.4 1.6
01/01:00pm 12.2 9.4 9.9 86 1.2 N 15 20 8 11 1008.9 1008.9 1.6
01/12:30pm 12.6 9.8 10.1 85 1.3 N 15 20 8 11 1008.5 1008.5 1.4
01/12:00pm 12.4 10.2 9.4 82 1.5 N 11 15 6 8 1009.0 1009.0 1.2
01/11:30am 12.6 9.5 8.7 77 2.0 NNW 15 26 8 14 1008.7 1008.7 0.8
01/11:00am 13.0 9.2 7.5 69 2.7 NNW 17 24 9 13 1009.1 1009.1 0.2
01/10:30am 14.1 9.4 6.0 58 3.9 N 20 30 11 16 1009.2 1009.2 0.0
01/10:00am 14.0 9.4 6.4 60 3.7 N 20 28 11 15 1009.2 1009.2 0.0
01/09:30am 13.5 7.6 5.9 60 3.6 N 26 39 14 21 1009.2 1009.3 0.0
01/09:00am 13.4 7.5 5.8 60 3.6 N 26 35 14 19 1008.8 1008.9 0.0
01/08:30am 13.5 7.2 5.9 60 3.6 N 28 41 15 22 1008.8 1008.9 0.0
01/08:00am 13.9 6.2 5.5 57 4.0 N 35 46 19 25 1008.5 1008.6 0.0
01/07:30am 13.9 6.2 5.5 57 4.0 N 35 54 19 29 1008.1 1008.2 0.0
01/07:00am 13.9 6.9 5.8 58 3.9 N 32 43 17 23 1008.2 1008.3 0.0
01/06:30am 14.0 6.9 5.6 57 4.0 N 32 43 17 23 1008.5 1008.6 0.0
01/06:00am 14.2 7.1 5.6 56 4.1 N 32 48 17 26 1008.7 1008.8 0.0
01/05:47am 14.3 6.6 5.4 55 4.2 N 35 54 19 29 1008.4 1008.5 0.0
01/05:30am 14.3 7.1 5.7 56 4.1 N 33 48 18 26 1008.7 1008.8 0.0
01/05:08am 14.8 7.7 5.3 53 4.5 N 32 50 17 27 1008.5 1008.6 0.0
01/05:00am 15.1 7.0 5.3 52 4.7 N 37 52 20 28 1008.2 1008.3 0.0
01/04:30am 15.7 7.2 5.0 49 5.1 N 39 52 21 28 1007.7 1007.8 0.0
01/04:01am 15.4 6.5 5.3 51 4.8 N 41 59 22 32 1007.5 1007.6 0.0
01/04:00am 15.5 6.2 5.1 50 4.9 N 43 59 23 32 1007.4 1007.5 0.0
01/03:36am 15.5 8.4 5.4 51 4.8 N 32 50 17 27 1008.2 1008.3 0.0
01/03:30am 15.5 8.2 5.4 51 4.8 N 33 46 18 25 1008.5 1008.6 0.0
01/03:00am 15.6 7.2 5.5 51 4.8 N 39 61 21 33 1008.7 1008.8 0.0
01/02:30am 16.0 6.6 5.3 49 5.1 N 44 63 24 34 1008.5 1008.6 0.0
01/02:03am 16.4 8.0 5.4 48 5.3 N 39 59 21 32 1009.0 1009.1 0.0
01/02:00am 16.2 8.2 5.5 49 5.2 N 37 54 20 29 1009.2 1009.3 0.0
01/01:38am 16.5 9.2 5.5 48 5.3 N 33 52 18 28 1009.8 1009.9 0.0
01/01:30am 16.7 8.6 5.3 47 5.5 N 37 54 20 29 1009.8 1009.9 0.0
01/01:00am 16.9 8.5 5.8 48 5.4 N 39 57 21 31 1010.0 1010.1 0.0
01/12:30am 16.3 7.7 6.4 52 4.9 N 41 59 22 32 1009.8 1009.9 0.0
01/12:00am 16.6 8.7 6.4 51 5.0 N 37 56 20 30 1009.4 1009.5 0.0
 
Date/Time
EST
Tmp

°C
App
Tmp
°C
Dew
Point
°C
Rel
Hum
%
Delta-T

°C
Wind Press
QNH
hPa
Press
MSL
hPa
Rain
since
9 am
mm
Dir
 
Spd
km/h
Gust
km/h
Spd
kts
Gust
kts
31/11:31pm 16.6 9.5 6.4 51 5.0 N 33 52 18 28 1009.6 1009.7 0.0
31/11:30pm 16.7 9.2 6.5 51 5.0 N 35 52 19 28 1009.6 1009.7 0.0
31/11:01pm 16.7 10.6 6.8 52 4.9 NNE 28 46 15 25 1009.9 1010.0 0.0
31/11:00pm 16.8 11.1 6.9 52 4.9 NNE 26 37 14 20 1010.0 1010.1 0.0
31/10:30pm 16.1 11.9 7.6 57 4.3 NE 19 28 10 15 1010.9 1011.0 0.0
31/10:00pm 16.2 12.1 7.7 57 4.3 NNE 19 26 10 14 1012.0 1012.1 0.0
31/09:30pm 16.2 12.6 8.2 59 4.1 NNE 17 22 9 12 1012.6 1012.7 0.0
31/09:00pm 15.9 13.1 8.4 61 3.8 NE 13 20 7 11 1012.7 1012.8 0.0
31/08:30pm 15.8 12.6 8.5 62 3.7 NNE 15 19 8 10 1012.8 1012.9 0.0
31/08:00pm 15.9 12.4 8.6 62 3.7 NE 17 22 9 12 1013.0 1013.1 0.0
31/07:30pm 16.2 12.7 8.7 61 3.8 NE 17 22 9 12 1013.1 1013.2 0.0
31/07:00pm 16.5 12.4 8.5 59 4.1 NNE 20 28 11 15 1013.1 1013.2 0.0
31/06:30pm 16.7 12.5 8.4 58 4.2 NNE 20 28 11 15 1013.3 1013.4 0.0
31/06:00pm 16.9 13.4 8.6 58 4.3 NNE 17 22 9 12 1013.8 1013.9 0.0
31/05:30pm 17.6 13.5 8.5 55 4.7 NNE 20 28 11 15 1013.9 1014.0 0.0
31/05:00pm 18.0 14.0 8.3 53 5.0 N 19 28 10 15 1014.0 1014.1 0.0
31/04:30pm 18.2 14.1 8.5 53 5.0 NNE 20 28 11 15 1013.9 1014.0 0.0
31/04:00pm 18.5 13.2 8.5 52 5.2 NNE 26 35 14 19 1013.8 1013.9 0.0
31/03:30pm 18.7 12.3 8.4 51 5.3 N 32 41 17 22 1014.0 1014.1 0.0
31/03:00pm 19.9 14.6 8.3 47 6.0 N 26 41 14 22 1014.3 1014.4 0.0

Latest Capital City Observations: Canberra | Sydney | Melbourne | Brisbane | Adelaide | Perth | Hobart | Darwin

Other Formats:

Comma delimited format used in spreadsheet applications
http://www.bom.gov.au/fwo/IDV60901/IDV60901.95866.axf

JavaScript Object Notation format (JSON) in row-major order
http://www.bom.gov.au/fwo/IDV60901/IDV60901.95866.json